Temperature
9 9 9 9 9 9 9 9 9 9 9 9 8 8 8 8 8 8 7 7 7 7 7 7 7 6 6 6 6 5 5 4 4 4 4 4 4 4 4 3 3 3 3
9 9 9 9 9 9 9 9 9 8 8 8 8 8 8 7 7 7 7 7 7 6 6 6 6 6 5 5 5 5 5 4 4 4 4 3 3 3 3 2 2 2 2
8 8 8 8 8 8 8 8 8 8 8 7 7 7 7 7 7 7 6 6 6 6 6 5 5 5 5 5 5 4 4 4 3 3 3 3 3 2 2 2 2 2 1
7 8 8 8 8 8 8 8 7 7 7 7 7 6 6 6 6 6 6 5 5 5 5 5 5 4 4 4 4 4 3 3 3 3 2 2 2 2 1 1 1 1 1
7 7 7 7 7 7 7 7 7 6 6 6 6 6 6 6 6 5 5 5 5 5 4 4 4 4 4 3 3 3 3 3 2 2 2 1 1 1 0 0 0 0 0
6 6 6 6 6 6 6 6 6 6 6 6 5 5 5 5 5 5 4 4 4 4 4 4 3 3 3 3 3 3 2 2 2 1 1 1 1 0 0 -0 -1 -1 -1
5 5 5 6 6 6 6 5 5 5 5 5 5 5 5 5 5 4 4 4 3 3 3 3 3 2 2 2 2 2 2 1 1 1 0 0 0 -0 -1 -1 -1 -1 -1
4 4 5 5 5 5 5 5 5 5 4 4 4 4 4 4 4 4 3 3 3 3 2 2 2 2 2 1 1 1 1 1 1 0 0 -0 -0 -1 -1 -1 -1 -2 -2
3 3 4 4 4 4 4 4 4 4 4 4 4 4 4 3 3 3 3 2 2 2 2 2 1 1 1 1 1 1 1 0 0 -0 -0 -1 -1 -1 -1 -2 -2 -2 -2
3 3 3 3 3 3 3 3 3 3 3 3 3 3 3 3 2 2 2 1 1 1 1 1 1 0 0 -0 -0 -0 -0 -0 -0 -0 -1 -1 -1 -1 -2 -2 -3 -3 -3
2 2 2 2 2 2 2 2 2 2 2 2 2 2 2 2 2 1 1 1 1 1 0 0 0 -0 -0 -0 -0 -0 -1 -1 -1 -1 -1 -1 -2 -2 -2 -3 -3 -3 -4
1 1 1 1 1 1 1 1 1 1 1 1 1 1 1 1 1 1 0 0 -0 -0 -0 -0 -0 -0 -1 -1 -1 -1 -1 -2 -2 -2 -2 -2 -3 -3 -3 -3 -3 -4 -4
1 1 1 1 1 1 1 1 1 1 1 1 1 1 0 0 0 -0 -0 -1 -1 -1 -1 -1 -1 -1 -1 -1 -1 -2 -2 -2 -2 -3 -3 -3 -3 -3 -3 -3 -4 -4 -4
0 0 0 0 0 0 -0 -0 0 0 -0 -0 -0 -0 -0 -0 -0 -1 -1 -1 -1 -1 -2 -2 -2 -2 -2 -2 -2 -2 -2 -3 -3 -3 -3 -3 -3 -4 -4 -4 -4 -4 -4
-1 -1 -1 -1 -1 -1 -1 -1 -1 -1 -1 -1 -1 -1 -1 -1 -1 -1 -2 -2 -2 -2 -2 -2 -2 -2 -2 -2 -3 -3 -3 -3 -3 -3 -4 -4 -4 -4 -4 -4 -5 -5 -5
-1 -1 -1 -1 -1 -1 -1 -1 -2 -2 -2 -2 -2 -2 -2 -2 -2 -2 -2 -2 -3 -3 -3 -3 -3 -3 -3 -3 -3 -3 -3 -4 -4 -4 -4 -4 -5 -5 -5 -5 -5 -5 -5
-2 -2 -2 -2 -2 -2 -2 -2 -2 -2 -2 -2 -2 -2 -2 -2 -2 -3 -3 -3 -3 -3 -3 -4 -4 -4 -4 -4 -4 -4 -4 -4 -4 -4 -5 -5 -5 -5 -5 -5 -6 -6 -6
-3 -3 -3 -3 -3 -3 -3 -3 -3 -3 -3 -3 -3 -3 -3 -3 -3 -3 -3 -4 -3 -4 -4 -4 -4 -4 -4 -4 -5 -5 -5 -5 -5 -5 -5 -5 -5 -6 -6 -6 -6 -7 -7
-4 -4 -4 -4 -4 -4 -4 -4 -4 -4 -4 -4 -4 -3 -4 -4 -4 -4 -4 -4 -4 -4 -4 -4 -5 -5 -5 -5 -5 -5 -5 -5 -5 -5 -6 -6 -6 -6 -6 -7 -7 -7 -7
-4 -4 -4 -4 -4 -4 -4 -4 -4 -4 -4 -4 -4 -4 -4 -4 -4 -4 -4 -4 -5 -5 -5 -5 -5 -5 -5 -5 -5 -5 -5 -5 -6 -6 -6 -6 -7 -7 -7 -7 -7 -8 -8
-5 -5 -5 -5 -5 -5 -5 -5 -5 -5 -5 -5 -5 -5 -5 -5 -5 -5 -5 -5 -5 -5 -5 -5 -5 -5 -5 -5 -6 -5 -6 -6 -6 -6 -7 -7 -7 -7 -7 -7 -8 -8 -8
-5 -5 -6 -6 -6 -6 -6 -6 -6 -6 -6 -6 -5 -6 -6 -6 -5 -5 -5 -5 -5 -6 -6 -6 -6 -6 -6 -6 -6 -6 -6 -6 -6 -7 -7 -7 -7 -7 -8 -8 -8 -8 -8
-6 -6 -6 -6 -6 -6 -6 -6 -6 -6 -6 -6 -6 -6 -6 -6 -6 -6 -6 -6 -6 -6 -6 -6 -6 -6 -6 -6 -6 -6 -7 -7 -7 -7 -7 -7 -7 -8 -8 -8 -8 -8 -8
-6 -7 -7 -7 -7 -6 -6 -6 -6 -6 -7 -7 -7 -7 -7 -7 -6 -6 -6 -6 -6 -6 -6 -6 -6 -6 -6 -6 -6 -7 -7 -7 -7 -7 -7 -8 -8 -8 -8 -8 -8 -8 -8
-7 -7 -7 -7 -7 -7 -7 -7 -7 -7 -7 -7 -7 -7 -7 -7 -7 -7 -6 -6 -6 -6 -6 -6 -6 -6 -6 -7 -7 -7 -7 -7 -7 -7 -8 -8 -8 -8 -8 -8 -8 -8 -8
-7 -7 -7 -7 -7 -7 -7 -7 -7 -7 -7 -7 -7 -7 -7 -7 -7 -7 -7 -7 -7 -7 -7 -6 -7 -7 -7 -7 -7 -7 -7 -7 -7 -8 -8 -8 -8 -8 -8 -8 -8 -8 -8
Wind_Speed
5 5 5 5 4 4 4 4 4 3 3 3 3 3 3 3 3 3 3 2 3 3 2 2 3 2 2 2 2 2 2 2 5 5 3 3 3 3 6 8 8 8 9
5 6 5 5 5 4 4 4 4 3 3 2 2 2 2 2 2 3 3 3 3 3 3 3 3 2 2 2 2 3 3 3 3 6 5 3 4 3 4 5 7 9 9
5 6 5 5 4 4 4 3 3 3 3 2 2 2 2 2 2 2 3 3 3 3 3 3 3 2 3 2 2 2 2 3 2 4 5 4 4 4 4 5 6 6 9
5 5 5 4 4 4 3 3 3 2 2 2 2 2 2 2 2 2 2 2 2 2 2 2 2 3 3 3 2 3 2 2 2 3 4 4 4 4 3 5 6 4 6
5 4 4 4 4 4 3 3 3 2 2 1 1 1 1 1 2 2 2 1 1 1 1 2 2 2 3 3 3 3 2 2 2 3 4 5 4 4 4 4 6 6 6
5 4 4 4 4 4 3 3 3 2 1 1 1 1 1 0 1 1 1 2 1 2 2 2 2 2 2 3 4 4 3 3 4 4 5 5 6 5 4 5 5 6 6
5 4 4 4 4 3 3 3 2 1 1 1 0 0 0 0 1 1 0 1 2 2 2 2 2 2 2 2 3 3 4 5 6 5 5 6 6 6 5 6 6 7 8
5 5 4 4 4 3 3 3 1 1 1 0 0 0 0 0 0 1 0 0 1 2 2 3 2 2 3 3 2 2 3 4 5 4 4 5 5 5 5 6 7 6 6
5 4 4 4 3 3 3 2 1 1 1 1 1 1 1 1 1 1 1 0 1 1 1 2 2 2 4 4 2 2 3 3 5 6 7 7 8 8 7 4 4 5 6
4 4 3 3 3 2 2 1 1 1 0 1 1 1 1 1 1 2 2 0 1 1 2 2 3 4 5 4 3 3 3 4 3 4 5 6 6 6 7 4 3 4 5
3 4 3 3 2 2 2 1 1 1 1 1 1 1 1 1 2 2 2 1 1 1 2 2 2 5 5 5 4 3 5 4 2 2 3 3 3 3 3 4 3 3 4
3 3 3 2 2 2 2 1 1 1 1 1 1 1 1 2 2 2 3 3 2 1 2 2 2 4 5 5 4 4 5 4 1 2 2 3 3 3 4 4 5 5 5
3 3 3 3 2 2 1 1 1 1 1 0 0 0 1 1 2 3 3 3 3 2 2 3 5 6 5 3 3 4 4 1 1 2 3 3 3 3 4 4 5 5 6
3 2 2 2 2 2 2 1 1 0 0 0 1 1 1 1 1 1 1 1 2 2 2 3 4 5 4 4 3 3 2 1 2 2 3 3 3 3 4 3 4 4 5
2 2 2 2 2 2 2 2 1 1 1 1 1 1 1 2 2 3 3 2 2 2 2 2 2 2 2 2 2 2 1 2 2 2 3 3 4 4 4 3 3 4 4
2 2 1 1 1 1 1 2 4 3 3 2 2 2 2 2 3 4 4 4 4 3 3 1 2 2 2 2 2 2 2 2 2 2 3 3 4 4 4 4 3 4 5
2 1 1 1 1 1 1 1 2 4 4 3 2 2 2 2 3 3 4 3 3 3 2 1 2 2 2 2 2 2 3 3 2 2 3 3 3 4 4 4 4 4 4
2 2 1 1 0 1 1 1 1 2 2 2 3 3 3 3 4 4 3 3 2 2 1 2 2 2 2 2 2 2 3 3 3 3 3 3 3 4 4 4 4 4 5
2 1 1 1 1 1 1 1 1 1 1 2 2 2 3 3 4 4 3 1 1 2 2 2 2 2 2 2 2 2 3 3 3 3 3 3 3 3 3 4 4 7 6
1 2 1 1 1 1 1 1 1 1 1 2 2 2 2 2 2 3 2 1 1 2 2 2 2 2 2 2 2 2 3 3 3 3 3 3 3 3 3 4 4 5 5
1 1 2 1 1 1 1 1 1 1 1 2 2 3 4 2 2 2 2 2 2 2 2 2 2 3 2 2 2 3 3 3 3 3 3 3 3 3 3 4 4 4 5
1 1 1 1 1 1 1 1 1 1 1 2 2 3 4 2 2 2 2 2 2 2 2 2 2 2 2 2 3 3 3 3 3 3 3 3 3 3 3 3 4 4 5
1 1 2 2 1 2 2 1 1 1 1 2 2 2 2 2 2 2 2 3 2 2 3 2 2 3 3 4 4 3 3 3 3 3 3 3 3 3 3 4 4 5 5
1 1 1 2 2 1 1 1 1 1 2 2 2 2 2 2 2 3 3 3 2 3 3 3 3 4 4 5 4 4 4 4 4 3 3 3 3 3 3 4 4 5 5
1 1 1 1 2 2 1 2 2 2 2 2 2 2 2 3 3 3 3 3 3 3 4 5 4 4 5 5 5 5 5 6 6 4 4 3 3 3 3 3 4 4 5
1 2 2 2 2 2 2 2 2 2 2 2 2 3 3 3 3 3 3 3 3 3 4 5 5 5 6 5 5 6 6 6 6 6 4 2 2 2 3 3 4 4 4
Wind_Direction
133 130 125 122 121 122 127 131 133 131 134 141 159 164 174 187 190 201 213 212 214 219 223 223 231 227 227 234 234 236 242 240 265 286 287 299 297 298 310 307 304 299 298
130 126 123 121 121 125 129 127 128 131 132 140 151 160 177 190 193 199 217 220 217 218 224 225 233 237 238 240 233 244 250 246 255 282 294 295 290 293 302 302 309 305 300
107 116 118 120 120 120 120 120 126 131 131 129 144 162 179 190 191 209 220 226 223 221 219 222 230 223 242 246 244 254 262 279 276 276 289 295 298 302 308 304 304 303 304
102 111 114 115 117 116 114 115 115 125 134 137 152 168 180 193 200 205 211 213 223 237 232 227 232 222 229 235 251 246 257 272 280 280 290 295 297 303 305 307 308 300 303
95 98 105 103 101 99 101 107 109 113 120 140 158 159 160 184 182 174 193 205 212 241 253 243 242 254 265 260 263 250 243 256 271 275 282 293 294 302 301 302 302 306 297
93 91 91 96 96 93 91 91 89 86 83 94 117 138 152 192 147 164 191 196 207 229 246 252 274 267 272 289 289 287 277 260 261 271 282 280 285 292 296 298 302 307 301
90 88 86 88 94 92 88 84 81 75 69 84 92 103 123 168 142 156 185 200 211 229 238 243 270 280 290 257 285 302 302 292 278 268 269 274 280 282 287 292 291 293 290
92 88 82 82 85 85 89 87 75 69 63 59 34 21 48 288 266 217 269 164 202 228 239 235 237 249 256 257 271 291 289 293 287 283 263 273 283 285 275 277 284 292 292
84 82 81 80 81 79 76 77 71 72 51 43 41 53 47 324 350 332 335 214 219 263 272 266 261 258 272 285 287 285 299 311 322 314 310 307 306 306 306 305 304 306 305
81 72 70 75 82 82 71 46 41 62 30 31 31 21 22 330 322 331 339 276 261 291 308 302 288 279 280 289 274 261 275 290 307 319 322 319 317 310 309 305 295 300 305
80 79 67 66 70 70 61 48 46 52 39 31 29 14 12 347 336 326 322 318 262 289 297 300 290 289 291 293 294 269 271 293 300 302 306 310 315 320 320 324 313 291 293
76 81 76 67 59 55 58 36 27 55 61 40 27 8 3 356 350 334 332 322 316 300 291 292 295 304 308 309 310 301 304 317 319 311 308 307 313 315 315 319 312 303 287
76 72 63 58 55 48 56 38 15 32 76 28 359 333 345 353 348 349 345 336 331 330 308 310 317 320 322 317 312 316 321 325 308 303 299 299 299 300 311 316 316 312 304
80 70 64 60 48 38 35 27 12 347 0 307 277 279 303 323 335 343 341 339 348 342 331 320 324 325 327 324 328 329 328 302 299 290 295 298 307 312 313 314 315 321 317
67 63 57 49 41 34 27 19 352 303 250 249 236 233 244 274 292 314 321 321 323 306 330 338 338 330 329 334 331 330 329 322 312 307 304 311 314 314 311 314 313 316 311
59 49 47 48 35 25 18 8 6 350 347 322 284 270 281 287 296 310 319 322 320 316 331 320 316 316 309 308 311 316 317 307 303 304 306 306 309 311 312 314 314 313 310
35 31 30 32 29 12 360 350 340 352 1 356 346 334 323 314 319 324 332 332 320 328 337 310 300 299 302 304 303 303 305 304 301 300 301 303 306 307 310 314 317 318 314
19 12 11 6 354 326 304 302 309 314 326 344 355 357 350 344 340 337 337 353 349 348 325 305 305 303 301 302 305 307 308 308 307 307 305 304 304 307 311 315 315 314 314
3 4 8 350 342 336 322 314 310 303 308 320 335 348 359 359 354 346 349 3 310 315 316 312 310 307 303 305 306 306 305 301 304 307 304 304 308 312 313 315 313 312 315
352 353 348 342 345 347 335 320 315 315 316 317 318 326 338 347 348 340 343 333 308 305 307 305 307 303 300 296 296 299 302 300 305 307 308 309 310 309 308 310 312 313 312
350 340 341 347 338 321 314 306 302 305 307 309 309 309 319 331 318 313 318 317 304 298 299 301 305 305 297 290 292 292 291 295 299 300 300 304 306 307 307 306 306 307 309
348 334 331 320 316 306 305 300 295 285 287 296 307 317 323 337 318 309 314 316 315 305 300 301 300 299 294 288 284 285 288 290 292 295 298 302 306 305 305 305 307 308 311
351 337 330 323 310 305 322 316 299 289 294 302 312 322 325 324 317 316 316 314 308 306 308 306 303 300 300 302 295 283 281 283 282 282 290 297 303 303 300 299 304 308 309
343 323 317 319 323 315 310 314 315 312 312 315 318 317 316 316 314 312 311 308 308 306 308 308 299 293 297 303 305 301 292 291 291 280 273 278 287 292 294 297 299 300 302
341 332 339 340 334 329 326 330 332 329 325 321 317 317 318 319 317 316 315 313 313 311 310 310 307 303 300 300 303 305 301 298 297 294 281 275 278 283 286 290 295 302 304
9 12 6 357 347 344 342 337 335 332 329 326 325 325 320 318 318 320 321 321 322 318 315 314 310 308 305 307 306 304 304 303 302 299 298 278 273 282 288 291 295 303 306
Height
1474 1477 1480 1482 1485 1488 1490 1492 1494 1496 1497 1499 1500 1501 1502 1502 1503 1504 1504 1505 1505 1505 1506 1506 1506 1506 1506 1505 1505 1504 1504 1503 1499 1496 1496 1495 1494 1492 1490 1488 1486 1484 1482
1471 1474 1477 1480 1482 1485 1487 1489 1491 1493 1494 1495 1497 1498 1498 1499 1499 1500 1500 1501 1501 1501 1501 1501 1501 1501 1501 1500 1500 1499 1498 1498 1496 1491 1490 1489 1488 1486 1484 1482 1481 1479 1476
1469 1472 1474 1477 1480 1482 1484 1486 1488 1490 1491 1492 1493 1494 1495 1495 1496 1496 1496 1497 1497 1497 1497 1497 1497 1496 1496 1495 1495 1494 1493 1492 1491 1488 1485 1484 1483 1481 1479 1477 1475 1473 1471
1467 1469 1472 1474 1477 1479 1482 1484 1485 1487 1488 1489 1490 1491 1491 1491 1492 1492 1492 1493 1493 1493 1493 1492 1492 1492 1491 1491 1490 1489 1488 1487 1486 1484 1481 1479 1477 1476 1474 1471 1468 1467 1465
1465 1467 1470 1472 1475 1477 1479 1481 1482 1484 1485 1486 1487 1487 1488 1488 1488 1488 1488 1489 1489 1488 1488 1488 1488 1487 1487 1486 1486 1485 1484 1482 1481 1479 1477 1475 1473 1471 1469 1467 1464 1461 1459
1464 1466 1468 1470 1473 1475 1477 1478 1479 1481 1482 1483 1483 1484 1484 1484 1484 1485 1485 1485 1485 1484 1484 1483 1483 1483 1482 1482 1481 1480 1480 1478 1476 1475 1472 1470 1468 1467 1465 1463 1460 1457 1453
1463 1465 1466 1469 1470 1472 1474 1476 1477 1478 1479 1479 1480 1480 1480 1480 1481 1481 1481 1481 1481 1480 1480 1479 1479 1478 1478 1477 1476 1475 1474 1473 1473 1472 1469 1466 1465 1463 1461 1458 1456 1454 1450
1462 1463 1465 1467 1468 1470 1471 1473 1474 1475 1475 1476 1476 1477 1477 1477 1477 1477 1477 1477 1476 1476 1476 1475 1475 1474 1473 1472 1471 1470 1469 1468 1468 1466 1465 1462 1461 1459 1458 1455 1452 1449 1446
1461 1462 1464 1465 1467 1468 1469 1470 1471 1472 1472 1473 1473 1473 1473 1473 1473 1473 1473 1473 1472 1472 1472 1471 1471 1470 1469 1469 1467 1465 1464 1463 1463 1461 1460 1459 1457 1456 1454 1451 1448 1445 1440
1460 1461 1463 1464 1465 1466 1466 1468 1468 1469 1469 1470 1470 1470 1470 1470 1470 1470 1470 1469 1468 1468 1467 1467 1467 1466 1465 1464 1463 1461 1459 1458 1457 1456 1455 1454 1452 1451 1449 1447 1444 1441 1437
1459 1460 1461 1462 1463 1464 1464 1465 1466 1465 1466 1466 1467 1467 1467 1467 1467 1466 1466 1466 1465 1464 1463 1463 1462 1462 1461 1460 1459 1457 1456 1455 1453 1452 1450 1449 1448 1446 1444 1442 1441 1438 1435
1458 1459 1460 1461 1461 1462 1462 1463 1463 1463 1463 1463 1463 1463 1463 1463 1463 1463 1463 1462 1462 1461 1459 1459 1458 1458 1457 1456 1455 1453 1452 1451 1449 1448 1446 1445 1443 1442 1440 1438 1436 1434 1432
1457 1457 1458 1459 1459 1460 1460 1460 1461 1460 1460 1460 1460 1460 1460 1460 1460 1459 1459 1458 1458 1457 1456 1455 1455 1454 1453 1452 1450 1450 1448 1447 1446 1445 1443 1441 1440 1438 1436 1434 1432 1430 1428
1455 1455 1456 1457 1457 1458 1458 1458 1458 1458 1458 1458 1458 1457 1457 1457 1456 1456 1455 1455 1454 1453 1452 1451 1451 1450 1449 1448 1447 1446 1445 1444 1443 1442 1440 1438 1437 1435 1433 1430 1428 1425 1423
1453 1454 1454 1455 1455 1455 1456 1456 1456 1456 1456 1456 1455 1455 1454 1453 1454 1454 1453 1452 1451 1450 1449 1448 1447 1446 1445 1444 1443 1442 1442 1441 1440 1438 1437 1435 1433 1431 1429 1427 1425 1422 1420
1451 1452 1452 1452 1453 1453 1453 1453 1453 1454 1453 1453 1453 1453 1452 1452 1451 1451 1450 1450 1449 1448 1446 1444 1443 1443 1442 1441 1440 1439 1438 1437 1436 1435 1434 1432 1430 1428 1426 1424 1422 1420 1417
1449 1449 1450 1450 1450 1450 1450 1450 1450 1450 1450 1450 1450 1450 1450 1449 1449 1448 1447 1446 1446 1445 1444 1442 1441 1440 1439 1438 1437 1436 1435 1434 1433 1432 1430 1429 1427 1425 1423 1421 1419 1417 1414
1447 1448 1448 1448 1448 1448 1448 1448 1448 1447 1447 1447 1447 1447 1447 1446 1446 1445 1444 1443 1442 1442 1441 1440 1439 1438 1437 1436 1435 1434 1432 1431 1430 1429 1427 1426 1424 1422 1420 1418 1416 1414 1412
1446 1446 1446 1446 1446 1446 1446 1446 1446 1445 1445 1444 1444 1444 1444 1443 1443 1442 1441 1441 1439 1439 1438 1437 1437 1436 1435 1434 1432 1431 1430 1429 1427 1426 1424 1423 1421 1420 1418 1416 1414 1412 1410
1444 1444 1444 1444 1444 1444 1444 1444 1443 1443 1443 1442 1441 1441 1441 1440 1439 1439 1439 1438 1437 1436 1436 1435 1434 1433 1432 1431 1430 1428 1427 1426 1424 1423 1421 1420 1419 1417 1415 1414 1412 1410 1408
1442 1442 1442 1442 1442 1442 1442 1441 1441 1441 1440 1440 1439 1439 1439 1438 1437 1437 1436 1435 1435 1434 1433 1432 1431 1430 1429 1428 1427 1425 1424 1423 1421 1420 1419 1417 1416 1415 1413 1411 1410 1408 1405
1440 1440 1440 1440 1439 1439 1439 1439 1439 1438 1438 1438 1437 1437 1437 1436 1435 1434 1434 1433 1432 1432 1431 1430 1428 1428 1427 1425 1424 1423 1421 1420 1419 1418 1416 1415 1414 1412 1411 1409 1407 1405 1403
1439 1438 1438 1438 1438 1437 1437 1437 1437 1436 1436 1435 1435 1434 1434 1433 1432 1432 1431 1430 1430 1429 1428 1427 1426 1425 1424 1423 1421 1420 1419 1417 1416 1415 1414 1412 1411 1410 1408 1407 1405 1403 1401
1437 1437 1437 1436 1436 1436 1435 1435 1434 1434 1434 1433 1433 1432 1431 1431 1430 1429 1428 1427 1427 1426 1425 1424 1423 1422 1421 1420 1419 1417 1416 1415 1414 1413 1411 1410 1409 1407 1406 1404 1403 1401 1399
1436 1436 1435 1435 1435 1434 1434 1433 1433 1432 1432 1431 1431 1430 1429 1429 1428 1427 1426 1425 1424 1423 1422 1421 1420 1419 1418 1417 1416 1414 1413 1413 1412 1410 1409 1408 1407 1405 1404 1403 1401 1399 1398
1435 1435 1434 1434 1433 1433 1432 1432 1431 1430 1430 1429 1429 1428 1427 1426 1425 1424 1423 1422 1421 1420 1419 1418 1417 1416 1415 1414 1413 1412 1411 1410 1409 1408 1407 1406 1405 1403 1402 1401 1399 1398 1396